Weather History for KJBR - December, 2014

Change the Weather History Date:

Monday, December 8, 2014

  Actual Average Record
Temperature  
Mean Temperature 45 °F 41 °F  
Max Temperature 53 °F 50 °F 73 °F (1922)
Min Temperature 37 °F 32 °F 10 °F (1909)
Degree Days  
Heating Degree Days 20 24  
Month to date heating degree days 154 185  
Since 1 July heating degree days 913 835  
Cooling Degree Days 0 0  
Month to date cooling degree days 0 0  
Year to date cooling degree days 1800 1827  
Moisture  
Dew Point 40 °F    
Average Humidity 86    
Maximum Humidity 100    
Minimum Humidity 71    
Precipitation  
Precipitation 0.00 in 0.19 in 2.17 in (1978)
Month to date precipitation 1.33 1.46  
Year to date precipitation 42.69 44.79  
Snow  
Snow 0.00 in 0.00 in T in (2013)
Month to date snowfall 0.0 0.1  
Since 1 July snowfall 0.3 0.1  
Snow Depth 0.00 in    
Sea Level Pressure  
Sea Level Pressure 30.25 in    
Wind  
Wind Speed 5 mph (West)    
Max Wind Speed 16 mph    
Max Gust Speed 21 mph    
Visibility 10 miles    
Events      
T = Trace of Precipitation, MM = Missing Value Source: NWS Daily Summary

Daily Weather History Graph

Daily Weather History Graph

Search for Another Location

Airport or City:

Trip Planner

Search our weather history database for the weather conditions in past years. The results will help you decide how hot, cold, wet, or windy it might be!

Date:

Astronomy

Dec. 08, 2014 Rise Set
Actual Time 7:00 AM CST 4:48 PM CST
Civil Twilight 6:31 AM CST 5:17 PM CST
Nautical Twilight 6:00 AM CST 5:48 PM CST
Astronomical Twilight 5:29 AM CST 6:19 PM CST
Moon 7:09 PM CST (12/8) 8:33 AM CST (12/8)
Length of Visible Light 10h 45m
Length of Day
9h 48m
Waning Gibbous, 95% of the Moon is Illuminated
Dec 8
Waning Gibbous
Dec 14
Last Quarter
Dec 21
New
Dec 28
First Quarter
Jan 4
Full

Hourly Weather History & Observations

Time (CST) Temp. Windchill Dew Point Humidity Pressure Visibility Wind Dir Wind Speed Gust Speed Precip Events Conditions
12:53 AM 39.0 °F - 36.0 °F 89% 30.31 in 10.0 mi Calm Calm - N/A   Clear
1:53 AM 37.9 °F - 36.0 °F 93% 30.30 in 10.0 mi Calm Calm - N/A   Clear
2:53 AM 37.9 °F - 36.0 °F 93% 30.28 in 10.0 mi Calm Calm - N/A   Clear
3:53 AM 37.9 °F - 37.0 °F 97% 30.27 in 10.0 mi Calm Calm - N/A   Clear
4:53 AM 37.9 °F - 36.0 °F 93% 30.27 in 10.0 mi Calm Calm - N/A   Mostly Cloudy
5:53 AM 37.9 °F 35.5 °F 37.0 °F 97% 30.27 in 10.0 mi NW 3.5 mph - N/A   Overcast
6:53 AM 39.0 °F 35.7 °F 37.0 °F 93% 30.28 in 10.0 mi WNW 4.6 mph - N/A   Mostly Cloudy
7:53 AM 39.0 °F - 37.0 °F 93% 30.30 in 10.0 mi Calm Calm - N/A   Mostly Cloudy
8:53 AM 42.1 °F 39.2 °F 37.9 °F 85% 30.30 in 10.0 mi WSW 4.6 mph - N/A   Mostly Cloudy
9:53 AM 45.0 °F 39.3 °F 37.0 °F 74% 30.31 in 10.0 mi West 11.5 mph - N/A   Overcast
10:53 AM 46.9 °F - 39.0 °F 74% 30.27 in 10.0 mi WNW 5.8 mph - N/A   Scattered Clouds
11:53 AM 50.0 °F - 42.8 °F 76% 30.23 in 10.0 mi West 12.7 mph - N/A   Clear
12:43 PM 51.8 °F - 42.8 °F 71% 30.22 in 10.0 mi West 15.0 mph - N/A   Mostly Cloudy
12:53 PM 51.1 °F - 43.0 °F 74% 30.22 in 10.0 mi West 13.8 mph 20.7 mph N/A   Overcast
1:53 PM 52.0 °F - 43.0 °F 71% 30.20 in 10.0 mi West 12.7 mph - N/A   Mostly Cloudy
2:53 PM 53.1 °F - 44.1 °F 71% 30.19 in 10.0 mi WSW 6.9 mph - N/A   Scattered Clouds
3:53 PM 53.1 °F - 44.1 °F 71% 30.19 in 10.0 mi WSW 11.5 mph - N/A   Clear
4:53 PM 52.0 °F - 44.1 °F 74% 30.21 in 10.0 mi WSW 6.9 mph - N/A   Clear
5:53 PM 48.9 °F - 43.0 °F 80% 30.22 in 10.0 mi West 3.5 mph - N/A   Clear
6:53 PM 46.9 °F - 42.1 °F 83% 30.22 in 10.0 mi West 4.6 mph - N/A   Clear
7:53 PM 45.0 °F - 41.0 °F 86% 30.22 in 10.0 mi Calm Calm - N/A   Clear
8:53 PM 46.0 °F 43.1 °F 42.1 °F 86% 30.22 in 10.0 mi West 5.8 mph - N/A   Clear
9:53 PM 45.0 °F 41.8 °F 41.0 °F 86% 30.23 in 10.0 mi WNW 5.8 mph - N/A   Clear
10:53 PM 44.1 °F 40.8 °F 41.0 °F 89% 30.24 in 10.0 mi WNW 5.8 mph - N/A   Clear
11:53 PM 42.8 °F 39.3 °F 39.2 °F 87% 30.23 in 10.0 mi WNW 5.8 mph - N/A   Clear